Terminal Aerodrome Forecast
Issued by NWS North Platte, NE

Home | Current Version | Previous Version | Text Only | Print | Product List | Glossary On
Versions: 1 2 3 4 5 6 7 8 9 10 11 12
000
FTUS43 KLBF 202300
TAFVTN
TAF
KVTN 202329Z 2100/2124 16008KT P6SM SKC
     FM211500 19015G20KT P6SM SCT150=

USA.gov is the U.S. government's official web portal to all federal, state and local government web resources and services.